2017-071R

Last updated on Wed Feb 14 2018 16:20:55 GMT+0000 (Coordinated Universal Time)

1 43052U 17071R 18044.94834358 .00002393 00000-0 72840-4 0 9993 2 43052 51.6397 281.4022 0002688 178.6388 181.4604 15.38234051 10592

Satellite not in orbit

2017-071R